SL-14 R/B, 21785

Orbit data source: Space-Track

SL-14 R/B, 21785 is space debris in LEO originally from a launch on Tue, 12 Nov 1991 UTC launched from the Plesetsk Missile And Space Complex (PKMTR). Debris objects in space refer to the collection of defunct objects orbiting the Earth. Examples of debris include non-operational satellites, rocket bodies, and fragments generated from explosions, collisions, or faulty payload assembly.

Loading next visibility...
Identifier
21785, 1991-077G
Orbit
LEO
Country
Flag of CISCIS
Related business
Manufacturer
Yuzhnoe
Mission
Spacecraft
Bus & Motor
S5M, Unknown motor
Mass
1,600 kg wet, 1,600 kg dry
Launch date (UTC)
1991-11-12 (34 years ago)
Launch vehicle
Unknown
Launch site
Plesetsk Missile And Space Complex (PKMTR)
Object type
Payload
Rocket body
Debris
Shape & HBR
Cyl, 1.4 m
Radar Cross Section
7.351 m², Large (>1 m²)

Expand to show TLE details & history
Last TLE update: 11 hours ago

TLE from 11 hours ago
0 SL-14 R/B
1 21785U 91077G   25259.24877652  .00000007  00000-0 -21826-4 0  9992
2 21785  82.6020 178.1968 0037384 282.4815 246.5069 12.55088326550392
Epoch: 2025-09-16T05:58Z
TLE epoch observation values (Epoch: 2025-09-16T05:58:14.291Z)
Latitude
11.26365°
Longitude
-88.27906°
Altitude
1,457.004 km
Speed
7.129 km/s
True Right ascension
23h 46m 53s
True Declination
11° 12' 14"
Sunlit
Object was in full shadow at epoch
Visualization orbit readout
Latitude
Unknown
Longitude
Unknown
Altitude
Unknown
Speed
Unknown
Apparent Right ascension
Unknown
Apparent Declination
Unknown
Sunlit
N/A
Visualization observer readout
Local Sidereal Time
09:55:19
Azimuth
Unknown
Elevation
Unknown
Doppler factor
Unknown
Orbital elements
Apogee altitude
1,469.843 km
Perigee altitude
1,411.384 km
Semi-major axis
7,818.751 km
Eccentricity
0.00374
Inclination
82.602°
RAAN
178.1968°
Arg. of periapsis
282.4815°
True anomaly
246.11475°
Mean anomaly
246.5069°
Eccentric anomaly
246.31075°
Mean motion
3.13933 °/min
Orbital period
114.67 mins
BSTAR
-0.000021826
Loading maneuver chart data...
Computing Atmospheric mass density...
Loading historical data...
Loading historical data...
Loading historical data...
Loading historical data...
Loading historical data...
Loading historical data...
Loading historical data...

Documentation

Showing up to 5 results
|